Location: Blythe
(33.2930°N, 82.2020°W)
Time: 12:10:24
(UTC-04:00)

Hubble Space Telescope - Visible Passes

Search period start: 05 May 2016 00:00
Search period end: 15 May 2016 00:00
Orbit: 539 x 543 km, 28.5° (Epoch: 05 May)

Date Brightness Start Highest point End Pass type
(mag) Time Alt. Az. Time Alt. Az. Time Alt. Az.
05 May 1.6 04:41:14 38° SSE 04:41:14 38° SSE 04:44:25 10° ESE visible
06 May 2.0 04:32:14 31° SE 04:32:14 31° SE 04:34:46 10° ESE visible
07 May 2.5 04:23:19 22° SE 04:23:19 22° SE 04:25:04 10° ESE visible
07 May 2.1 05:58:47 10° WSW 06:02:03 22° SSW 06:05:19 10° SE visible
08 May 3.1 04:14:32 15° SE 04:14:32 15° SE 04:15:21 10° ESE visible
08 May 2.3 05:49:58 12° WSW 05:52:21 19° SSW 05:55:17 10° SSE visible
09 May 2.5 05:41:21 14° SW 05:42:38 15° SSW 05:45:06 10° SSE visible
10 May 2.8 05:32:57 12° SSW 05:32:57 12° SSW 05:34:37 10° S visible
12 May 3.3 22:17:06 10° SW 22:17:07 10° SW 22:17:07 10° SW visible
13 May 2.6 22:07:10 10° SW 22:08:51 19° SSW 22:08:51 19° SSW visible
14 May 1.8 21:57:19 10° SW 22:00:24 29° S 22:00:24 29° S visible
